STARLINK-36177 (66932 NORAD) Tracking and Keplerian Element Data

This shows tracking and keplerian element data for the satellite.

Feedback or suggestion? Click here.




ElementValue
Catalog66932
NameSTARLINK-36177
Epoch Orbit319
Epoch Day354.25003472
Epoch Year2025
RAAN12.7016
Inclination53.1562
Eccentricity0.0001103
Argument of Perigee81.0058
Mean Anonmoly164.0163
Mean Motion15.77767369
Decay Rate-0.01436994
L11 66932U 25286H 25354.25003472 -.01436994 00000+0 -94630-2 0 9992
L22 66932 53.1562 12.7016 0001103 81.0058 164.0163 15.77767369 3196



Live tracking and technical data element details for STARLINK-36177 (NORAD 66932). STARLINK-36177 can be tracked NOW for your location showing map with azimuth and elevation plus other details from your city location.







IsCatalogInMostPopularTable: catalog: 66932, numindb: 9
Update: records affected: 1



GetName: 66932 STARLINK-36177

Hit Count: updated at: Sun, 08 Feb 2026 07:24:24 GMT